NOAA 17 DEB

Satellite information

Favourite Embed

Satellite Type and Status

DEBRISIN ORBIT

Key statistics

Satellite NOAA 17 DEB at a glance.

Uptime

8355

Days in orbit

Revolutions

≈ 15.0

Per day

Orbit

SSO

Sun Synchronous Orbit

Inclination

98.8

Latest

Satellite identification and parameters

Extended collection of information and parameters for NOAA 17 DEB.

Object identification

Identified? True

Debris? True

Object name: NOAA 17 DEB

International designator: 2002-032BV

Object number (NORAD): 48736

Object ID (CCSDS): 48736

Country: UNITED STATES OF AMERICA (US)

Current information (Y/N): Y

RCS size: SMALL

Orbital parameters

Period: 96.084 minutes

Inclination: 98.7515 deg

SMA: 6949.071 km

Apoapsis: 588.499 km

Periapsis: 553.372 km

RAAN: 165.2095 deg

Eccentricy: 0.0025275

Argument of periapsis: 92.9506 deg

Mean anomaly: 267.4607 deg

Mean motion: 14.98692976 rev/day

Mean motion (dot): 0.00057524 rev/day2

B* drag term: 0.0047239 1/REarth

Two-line elements (TLE)

Creation date: May 8, 2025, 3:01 a.m.

Reference frame: TEME

Reference center: EARTH

Epoch: May 7, 2025, 8:02 a.m. UTC

TLE line 0: 0 NOAA 17 DEB

TLE line 1: 1 48736U 02032BV 25127.33472466 .00057524 00000-0 47239-2 0 9997

TLE line 2: 2 48736 98.7515 165.2095 0025275 92.9506 267.4607 14.98692976218728

Live tracking on map

Real-time ground track for satellite NOAA 17 DEB.

In-orbit conjunctions

A list of the most updated potential collisions computed for object NOAA 17 DEB.

Target Orbit TCA Probability of collision Miss distance Type
COSMOS 2084 LEO 2025-04-07 16:35:18 0.0001113568 608.0 (m) PAYLOAD
SL-14 R/B LEO 2024-12-23 11:00:33 0.000172046 23.0 (m) ROCKET BODY
FENGYUN 1C DEB SSO 2024-11-12 23:52:33 0.001004744 287.0 (m) DEBRIS

Associated space launch

NOAA M carried weather imagers and microwave and infrared sounders, as well as a SARSAT search-and-rescue package. It had an on-orbit mass of 1475 kg.

NOAA 17 DEB was lifted into orbit during the mission ‘Titan II SLV | NOAA 17’, on board a Titan II SLV space rocket.

The launch took place on June 24, 2002, 6:23 p.m. from Space Launch Complex 4W.

For more information about the launch, click the button.

Launch to space Titan II SLV | NOAA 17
Titan II SLV | NOAA 17

Agency: N/A

Status: Launch Successful

Launch date: June 24, 2002, 6:23 p.m. UTC

Rocket: Titan II SLV

Launch pad: Space Launch Complex 4W

Location: Vandenberg SFB, CA, USA

...

Latest news about this satellite

There are no fresh news available about this satellite. Check back as we update our databases every day.


Newsletter sign-up

Weekly statistics, charts and insights to help you stay on top of the space industry.